Location: Brno
(49.2000°N, 16.6330°E)
Time: 11:28:40
(UTC+02:00)

ISS - Pass Details

Date: 25 May 2021
Orbit: 417 x 422 km, 51.6° (Epoch: 13 June)

Event Time Altitude Azimuth Distance (km) Brightness Sun altitude
Rises 00:36:53 0° 285° (WNW) 2,369 0.3 -19.8°
Reaches altitude 10° 00:39:24 10° 266° (W) 1,502 -1.0 -19.8°
Enters shadow 00:39:31 11° 265° (W) 1,468 -1.0 -19.8°
